KG6SIB Weather Reports


time (UTC)temp
C
wind
direction
speed
KPH
gust
KPH
rain 1hr
cm
rain 24hr
cm
rain mn
cm
humidity
%
barometer
mb
20260507205147 26 248 1.6 17.7 0.00 0.00 0.00 45 1017.5
20260507204647 26 65 3.2 12.9 0.00 0.00 0.00 44 1017.4
20260507204147 26 233 4.8 12.9 0.00 0.00 0.00 45 1017.6
20260507203647 26 115 3.2 11.3 0.00 0.00 0.00 47 1017.3
20260507203147 26 207 1.6 12.9 0.00 0.00 0.00 46 1017.3
20260507202647 26 248 4.8 12.9 0.00 0.00 0.00 47 1017.4
20260507202147 26 274 0.0 9.7 0.00 0.00 0.00 45 1017.4
20260507201147 26 348 3.2 19.3 0.00 0.00 0.00 45 1017.6
20260507200647 26 244 6.4 19.3 0.00 0.00 0.00 47 1017.5
20260507200147 26 212 8.0 17.7 0.00 0.00 0.00 47 1017.4
20260507195147 26 203 0.0 16.1 0.00 0.00 0.00 45 1017.9
20260507194647 26 213 3.2 16.1 0.00 0.00 0.00 46 1018.0
20260507194146 26 242 8.0 16.1 0.00 0.00 0.00 46 1018.0
20260507193646 25 273 1.6 17.7 0.00 0.00 0.00 45 1017.7
20260507192647 25 192 4.8 17.7 0.00 0.00 0.00 45 1017.8
20260507192147 25 218 4.8 16.1 0.00 0.00 0.00 44 1017.9
20260507191646 25 227 4.8 16.1 0.00 0.00 0.00 46 1017.8
20260507191146 25 245 6.4 16.1 0.00 0.00 0.00 44 1017.8
20260507190646 25 211 6.4 16.1 0.00 0.00 0.00 45 1017.9
20260507190147 26 212 9.7 14.5 0.00 0.00 0.00 46 1018.4
20260507184646 25 207 12.9 17.7 0.00 0.00 0.00 47 1018.3
20260507184146 25 231 4.8 16.1 0.00 0.00 0.00 47 1018.4
20260507183646 25 267 6.4 16.1 0.00 0.00 0.00 44 1018.3
20260507183146 25 174 1.6 14.5 0.00 0.00 0.00 42 1018.4
20260507182646 25 236 4.8 16.1 0.00 0.00 0.00 39 1018.2
20260507182146 26 55 1.6 16.1 0.00 0.00 0.00 41 1018.3
20260507181646 26 150 4.8 14.5 0.00 0.00 0.00 45 1018.4
20260507180645 25 234 4.8 19.3 0.00 0.00 0.00 45 1018.3
20260507180145 26 233 16.1 19.3 0.00 0.00 0.00 44 1018.4
20260507175645 25 238 9.7 16.1 0.00 0.00 0.00 46 1018.5
20260507175146 25 190 4.8 17.7 0.00 0.00 0.00 47 1018.6
20260507174646 25 213 3.2 17.7 0.00 0.00 0.00 47 1018.6
20260507173145 25 244 12.9 16.1 0.00 0.00 0.00 46 1018.6
20260507172146 25 220 11.3 14.5 0.00 0.00 0.00 45 1018.7
20260507171645 24 232 3.2 12.9 0.00 0.00 0.00 47 1018.4
20260507171145 24 186 3.2 8.0 0.00 0.00 0.00 44 1018.4
20260507170645 23 190 1.6 8.0 0.00 0.00 0.00 47 1018.6
20260507170145 23 234 3.2 11.3 0.00 0.00 0.00 46 1018.5
20260507165645 23 202 1.6 11.3 0.00 0.00 0.00 45 1018.5
20260507165145 23 229 0.0 9.7 0.00 0.00 0.00 48 1018.7
20260507164645 23 229 3.2 9.7 0.00 0.00 0.00 47 1018.8
20260507164145 23 182 3.2 12.9 0.00 0.00 0.00 46 1018.7
20260507163145 23 200 3.2 12.9 0.00 0.00 0.00 46 1018.8
20260507162644 23 227 3.2 12.9 0.00 0.00 0.00 46 1018.7
20260507162145 23 231 9.7 9.7 0.00 0.00 0.00 46 1018.7
20260507161644 23 194 0.0 9.7 0.00 0.00 0.00 46 1018.7
20260507161144 23 244 0.0 9.7 0.00 0.00 0.00 43 1018.7
20260507160645 22 227 0.0 9.7 0.00 0.00 0.00 47 1018.5
20260507160145 22 248 6.4 8.0 0.00 0.00 0.00 46 1018.6
20260507155644 22 215 1.6 6.4 0.00 0.00 0.00 46 1018.7
20260507155144 22 151 1.6 3.2 0.00 0.00 0.00 47 1018.7
20260507154644 21 137 0.0 1.6 0.00 0.00 0.00 49 1018.6
20260507154144 21 137 0.0 4.8 0.00 0.00 0.00 50 1018.7
20260507153644 21 136 0.0 4.8 0.00 0.00 0.00 51 1018.7
20260507152644 20 129 0.0 3.2 0.00 0.00 0.00 52 1018.3
20260507152144 19 71 0.0 0.0 0.00 0.00 0.00 51 1018.1
20260507151644 18 71 0.0 0.0 0.00 0.00 0.00 62 1018.2
20260507151144 18 71 0.0 0.0 0.00 0.00 0.00 62 1018.2
20260507150644 18 71 0.0 0.0 0.00 0.00 0.00 72 1018.0
20260507145144 16 71 0.0 4.8 0.00 0.00 0.00 69 1018.1
20260507144644 15 74 1.6 8.0 0.00 0.00 0.00 68 1018.0
20260507144143 15 57 1.6 8.0 0.00 0.00 0.00 71 1017.9
20260507143644 14 76 4.8 8.0 0.00 0.00 0.00 72 1017.8
20260507143143 13 71 4.8 8.0 0.00 0.00 0.00 75 1017.6
20260507142643 13 65 4.8 8.0 0.00 0.00 0.00 76 1017.6
20260507142143 12 46 3.2 9.7 0.00 0.00 0.00 78 1017.3
20260507141643 11 67 4.8 9.7 0.00 0.00 0.00 77 1017.1
20260507141143 11 61 8.0 12.9 0.00 0.00 0.00 79 1017.1
20260507140143 10 34 8.0 9.7 0.00 0.00 0.00 79 1016.8
20260507135643 9 61 9.7 12.9 0.00 0.00 0.00 80 1017.1
20260507135143 9 62 6.4 12.9 0.00 0.00 0.00 81 1017.1
20260507134643 8 48 6.4 11.3 0.00 0.00 0.00 82 1017.2
20260507134142 8 53 6.4 11.3 0.00 0.00 0.00 83 1016.9
20260507133643 7 44 9.7 11.3 0.00 0.00 0.00 83 1016.9
20260507133143 7 65 8.0 9.7 0.00 0.00 0.00 82 1016.9
20260507132643 7 50 9.7 11.3 0.00 0.00 0.00 82 1016.9
20260507132143 7 32 6.4 14.5 0.00 0.00 0.00 82 1016.8
20260507131643 7 56 8.0 14.5 0.00 0.00 0.00 82 1016.9
20260507131143 7 40 8.0 9.7 0.00 0.00 0.00 82 1016.5
20260507130643 7 65 6.4 11.3 0.00 0.00 0.00 82 1016.3
20260507130143 7 65 6.4 11.3 0.00 0.00 0.00 82 1016.3
20260507125643 7 57 8.0 11.3 0.00 0.00 0.00 83 1016.8
20260507125143 7 46 9.7 12.9 0.00 0.00 0.00 83 1016.8
20260507124642 7 43 6.4 12.9 0.00 0.00 0.00 83 1016.8
20260507124142 7 56 6.4 9.7 0.00 0.00 0.00 83 1016.8
20260507123642 7 57 6.4 8.0 0.00 0.00 0.00 83 1016.8
20260507123142 7 65 6.4 11.3 0.00 0.00 0.00 83 1016.8
20260507122642 7 65 8.0 11.3 0.00 0.00 0.00 83 1017.0
20260507122142 7 60 6.4 11.3 0.00 0.00 0.00 83 1017.0
20260507121142 7 38 6.4 9.7 0.00 0.00 0.00 83 1016.8
20260507120642 7 57 4.8 8.0 0.00 0.00 0.00 84 1016.8
20260507120142 7 63 6.4 11.3 0.00 0.00 0.00 84 1016.7
20260507115141 7 57 6.4 12.9 0.00 0.00 0.00 84 1017.2
20260507114642 7 62 8.0 12.9 0.00 0.00 0.00 84 1017.1
20260507114141 7 48 9.7 12.9 0.00 0.00 0.00 84 1017.2
20260507113642 7 47 8.0 9.7 0.00 0.00 0.00 84 1017.2
20260507112641 7 46 8.0 12.9 0.00 0.00 0.00 85 1017.3
20260507111641 7 47 4.8 12.9 0.00 0.00 0.00 86 1017.3
20260507111141 7 75 8.0 12.9 0.00 0.00 0.00 86 1017.3
20260507110641 7 71 3.2 12.9 0.00 0.00 0.00 87 1017.5
20260507105641 6 55 8.0 11.3 0.00 0.00 0.00 87 1017.7
20260507105141 6 30 9.7 11.3 0.00 0.00 0.00 87 1017.7
20260507104641 6 43 8.0 12.9 0.00 0.00 0.00 87 1017.7
20260507104141 6 69 6.4 14.5 0.00 0.00 0.00 88 1017.7
20260507103641 6 41 6.4 14.5 0.00 0.00 0.00 88 1017.7
20260507103141 6 41 9.7 12.9 0.00 0.00 0.00 88 1017.8
20260507102141 6 57 6.4 11.3 0.00 0.00 0.00 88 1017.9
20260507101641 6 68 6.4 9.7 0.00 0.00 0.00 89 1017.8
20260507101140 6 74 6.4 9.7 0.00 0.00 0.00 89 1017.8
20260507100641 6 71 6.4 11.3 0.00 0.00 0.00 89 1017.7
20260507100141 6 54 6.4 11.3 0.00 0.00 0.00 90 1017.8
20260507095640 6 63 8.0 14.5 0.00 0.00 0.00 90 1017.9
20260507095141 6 49 6.4 14.5 0.00 0.00 0.00 90 1017.9
20260507094641 6 51 6.4 12.9 0.00 0.00 0.00 90 1018.0
20260507094140 6 40 8.0 9.7 0.00 0.00 0.00 90 1018.0
20260507093640 6 30 4.8 9.7 0.00 0.00 0.00 90 1018.1
20260507093141 6 34 8.0 11.3 0.00 0.00 0.00 90 1018.2
20260507092641 6 66 6.4 11.3 0.00 0.00 0.00 89 1018.2
20260507092140 6 60 6.4 11.3 0.00 0.00 0.00 89 1018.2
20260507090640 6 42 6.4 9.7 0.00 0.00 0.00 90 1018.5
20260507090140 6 48 6.4 9.7 0.00 0.00 0.00 90 1018.6
20260507085640 6 63 6.4 9.7 0.00 0.00 0.00 90 1018.7
20260507085140 6 47 4.8 11.3 0.00 0.00 0.00 90 1018.6
20260507084640 6 32 6.4 11.3 0.00 0.00 0.00 90 1018.7
20260507084140 6 42 9.7 11.3 0.00 0.00 0.00 90 1018.7
20260507083640 6 28 8.0 11.3 0.00 0.00 0.00 90 1018.7
20260507083140 7 54 6.4 11.3 0.00 0.00 0.00 90 1018.8
20260507082639 7 67 6.4 11.3 0.00 0.00 0.00 90 1018.8
20260507081640 7 53 4.8 9.7 0.00 0.00 0.00 90 1018.9
20260507080639 7 58 6.4 9.7 0.00 0.00 0.00 90 1018.9
20260507080139 7 43 6.4 9.7 0.00 0.00 0.00 90 1018.9
20260507075639 7 21 8.0 9.7 0.00 0.00 0.00 90 1018.6
20260507075139 7 25 6.4 9.7 0.00 0.00 0.00 90 1018.6
20260507074639 7 40 8.0 9.7 0.00 0.00 0.00 90 1018.5
20260507074139 7 49 8.0 11.3 0.00 0.00 0.00 90 1018.6
20260507073639 7 61 6.4 11.3 0.00 0.00 0.00 90 1018.6
20260507073139 7 42 6.4 11.3 0.00 0.00 0.00 90 1018.6
20260507072639 7 78 8.0 9.7 0.00 0.00 0.00 90 1018.8
20260507071139 7 62 4.8 11.3 0.00 0.00 0.00 90 1019.0
20260507070138 7 64 4.8 9.7 0.00 0.00 0.00 89 1019.0
20260507065638 7 69 4.8 8.0 0.00 0.00 0.00 89 1018.6
20260507065139 7 49 4.8 8.0 0.00 0.00 0.00 89 1018.6
20260507064138 7 33 0.0 9.7 0.00 0.00 0.00 89 1018.6
20260507063638 8 44 6.4 9.7 0.00 0.00 0.00 89 1018.9
20260507063138 8 16 3.2 11.3 0.00 0.00 0.00 89 1018.8
20260507062638 8 59 8.0 11.3 0.00 0.00 0.00 89 1018.9
20260507062138 8 36 3.2 12.9 0.00 0.00 0.00 89 1019.0
20260507061638 8 31 9.7 12.9 0.00 0.00 0.00 89 1019.0
20260507061138 8 13 4.8 12.9 0.00 0.00 0.00 89 1018.9
20260507060638 8 39 6.4 9.7 0.00 0.00 0.00 89 1019.0
20260507060138 8 52 4.8 11.3 0.00 0.00 0.00 90 1018.9
20260507055638 8 32 8.0 11.3 0.00 0.00 0.00 90 1018.4
20260507055138 8 36 8.0 8.0 0.00 0.00 0.00 90 1018.4
20260507054638 8 45 4.8 8.0 0.00 0.00 0.00 89 1018.4
20260507054137 8 31 4.8 9.7 0.00 0.00 0.00 90 1018.3
20260507053638 8 44 4.8 9.7 0.00 0.00 0.00 90 1018.7
20260507053137 8 38 3.2 8.0 0.00 0.00 0.00 90 1018.6
20260507052638 8 63 8.0 8.0 0.00 0.00 0.00 90 1018.6
20260507051638 8 24 6.4 8.0 0.00 0.00 0.00 90 1018.6
20260507051137 8 40 4.8 11.3 0.00 0.00 0.00 90 1018.7
20260507050637 8 41 8.0 11.3 0.00 0.00 0.00 90 1018.7
20260507050137 8 63 3.2 9.7 0.00 0.00 0.00 90 1018.7
20260507045637 8 42 3.2 9.7 0.00 0.00 0.00 89 1018.2
20260507045137 8 68 4.8 8.0 0.00 0.00 0.00 89 1018.2
20260507044637 8 53 6.4 11.3 0.00 0.00 0.00 89 1018.4
20260507044137 8 51 4.8 11.3 0.00 0.00 0.00 89 1018.3
20260507043637 9 52 3.2 11.3 0.00 0.00 0.00 89 1018.6
20260507043137 9 76 4.8 9.7 0.00 0.00 0.00 89 1018.6
20260507042637 9 35 8.0 9.7 0.00 0.00 0.00 88 1018.7
20260507041637 9 44 3.2 8.0 0.00 0.00 0.00 88 1018.6
20260507040137 10 37 0.0 6.4 0.00 0.00 0.00 87 1018.5
20260507035637 10 45 6.4 8.0 0.00 0.00 0.00 87 1017.9
20260507035136 10 47 3.2 8.0 0.00 0.00 0.00 87 1017.9
20260507034637 10 53 4.8 6.4 0.00 0.00 0.00 86 1017.8
20260507034137 10 55 6.4 6.4 0.00 0.00 0.00 86 1017.7
20260507033136 11 59 1.6 8.0 0.00 0.00 0.00 85 1018.0
20260507032637 11 66 3.2 6.4 0.00 0.00 0.00 85 1018.0
20260507031636 11 79 3.2 8.0 0.00 0.00 0.00 83 1018.0
20260507031136 11 5 3.2 6.4 0.00 0.00 0.00 83 1018.0
20260507030636 12 347 3.2 4.8 0.00 0.00 0.00 82 1018.1
20260507025136 12 244 0.0 1.6 0.00 0.00 0.00 81 1017.1
20260507024636 13 244 0.0 1.6 0.00 0.00 0.00 80 1017.0
20260507023636 13 244 0.0 6.4 0.00 0.00 0.00 79 1017.3
20260507023136 13 244 0.0 6.4 0.00 0.00 0.00 79 1017.2
20260507022136 14 245 3.2 6.4 0.00 0.00 0.00 78 1017.1
20260507021636 15 245 3.2 8.0 0.00 0.00 0.00 77 1017.4
20260507021136 15 243 0.0 8.0 0.00 0.00 0.00 77 1017.4
20260507020636 15 242 6.4 11.3 0.00 0.00 0.00 76 1017.3
20260507020135 15 231 6.4 11.3 0.00 0.00 0.00 75 1017.4
20260507015635 15 234 1.6 8.0 0.00 0.00 0.00 75 1016.6
20260507015135 15 234 0.0 8.0 0.00 0.00 0.00 74 1016.6
20260507014635 16 225 0.0 9.7 0.00 0.00 0.00 74 1016.8
20260507014136 16 232 8.0 9.7 0.00 0.00 0.00 73 1016.8
20260507013635 16 241 0.0 9.7 0.00 0.00 0.00 73 1016.7
20260507013135 16 240 3.2 11.3 0.00 0.00 0.00 71 1016.6
20260507012635 16 248 3.2 11.3 0.00 0.00 0.00 71 1016.7
20260507011635 17 244 1.6 11.3 0.00 0.00 0.00 70 1017.1
20260507011135 17 217 0.0 11.3 0.00 0.00 0.00 70 1017.1
20260507010635 17 232 1.6 17.7 0.00 0.00 0.00 69 1017.0
20260507010135 17 214 9.7 17.7 0.00 0.00 0.00 67 1017.0
20260507005635 17 234 4.8 14.5 0.00 0.00 0.00 66 1016.5
20260507005135 18 223 8.0 14.5 0.00 0.00 0.00 66 1016.5
20260507004635 18 254 0.0 12.9 0.00 0.00 0.00 65 1016.5
20260507004135 18 235 0.0 12.9 0.00 0.00 0.00 64 1016.6
20260507003635 18 241 1.6 14.5 0.00 0.00 0.00 65 1016.8
20260507003135 18 222 6.4 16.1 0.00 0.00 0.00 63 1016.7
20260507002634 18 257 4.8 16.1 0.00 0.00 0.00 63 1016.6
20260507002135 18 225 3.2 14.5 0.00 0.00 0.00 62 1016.6
20260507001635 19 230 3.2 17.7 0.00 0.00 0.00 61 1016.6
20260507001134 19 211 3.2 17.7 0.00 0.00 0.00 63 1016.7
20260507000635 19 195 4.8 14.5 0.00 0.00 0.00 61 1016.6
20260507000134 19 257 3.2 20.9 0.00 0.00 0.00 61 1016.5
20260506235634 20 161 6.4 20.9 0.00 0.00 0.00 59 1016.8
20260506235134 20 237 6.4 17.7 0.00 0.00 0.00 59 1016.9
20260506234634 20 238 9.7 19.3 0.00 0.00 0.00 59 1016.9
20260506234134 20 218 4.8 19.3 0.00 0.00 0.00 59 1016.9
20260506233634 20 202 1.6 16.1 0.00 0.00 0.00 60 1017.0
20260506233134 20 221 8.0 16.1 0.00 0.00 0.00 59 1016.9
20260506232634 20 244 8.0 14.5 0.00 0.00 0.00 59 1016.9
20260506232134 20 227 9.7 16.1 0.00 0.00 0.00 59 1016.9
20260506231634 20 242 1.6 16.1 0.00 0.00 0.00 57 1016.9
20260506231134 21 227 8.0 19.3 0.00 0.00 0.00 56 1017.0
20260506230633 21 239 0.0 19.3 0.00 0.00 0.00 58 1017.1
20260506230133 21 221 4.8 19.3 0.00 0.00 0.00 56 1017.0
20260506225634 21 202 4.8 19.3 0.00 0.00 0.00 58 1017.4
20260506225133 21 254 1.6 16.1 0.00 0.00 0.00 55 1017.0
20260506224634 21 227 0.0 16.1 0.00 0.00 0.00 56 1017.1
20260506224134 21 78 1.6 19.3 0.00 0.00 0.00 53 1017.4
20260506223634 21 220 3.2 22.5 0.00 0.00 0.00 54 1017.5
20260506223134 21 254 8.0 22.5 0.00 0.00 0.00 54 1017.5
20260506222633 21 250 6.4 17.7 0.00 0.00 0.00 53 1017.6
20260506222133 21 329 3.2 20.9 0.00 0.00 0.00 52 1017.8
20260506221633 21 219 11.3 20.9 0.00 0.00 0.00 52 1017.7
20260506221133 21 253 20.9 20.9 0.00 0.00 0.00 52 1017.8
20260506220633 21 196 6.4 17.7 0.00 0.00 0.00 53 1017.8
20260506220133 21 328 4.8 17.7 0.00 0.00 0.00 49 1017.6
20260506215633 21 270 1.6 16.1 0.00 0.00 0.00 51 1017.9
20260506215133 21 321 0.0 20.9 0.00 0.00 0.00 51 1017.9
20260506214633 21 192 1.6 20.9 0.00 0.00 0.00 49 1017.8
20260506214132 21 198 6.4 14.5 0.00 0.00 0.00 49 1018.2
20260506213132 21 48 1.6 19.3 0.00 0.00 0.00 51 1018.2
20260506212632 21 260 14.5 19.3 0.00 0.00 0.00 50 1018.2
20260506212133 20 328 1.6 14.5 0.00 0.00 0.00 53 1018.3
20260506211633 21 205 6.4 14.5 0.00 0.00 0.00 50 1018.2
20260506211132 21 209 6.4 12.9 0.00 0.00 0.00 51 1018.5
20260506210632 21 313 3.2 12.9 0.00 0.00 0.00 49 1018.4
20260506210132 21 240 4.8 19.3 0.00 0.00 0.00 50 1018.5
20260506205632 21 240 8.0 19.3 0.00 0.00 0.00 50 1018.8